TimeMST,TemperatureF,Dew PointF,Humidity,Sea Level PressureIn,VisibilityMPH,Wind Direction,Wind SpeedMPH,Gust SpeedMPH,PrecipitationIn,Events,Conditions,WindDirDegrees,DateUTC
12:53 AM,27.0,23.0,85,29.74,10.0,WSW,6.9,-,0.00,,Clear,250,2012-11-10 07:53:00
1:53 AM,28.0,23.0,81,29.73,10.0,WSW,9.2,-,N/A,,Mostly Cloudy,240,2012-11-10 08:53:00
2:24 AM,28.4,23.0,80,29.71,10.0,WSW,11.5,-,0.00,,Overcast,240,2012-11-10 09:24:00
2:53 AM,28.0,23.0,81,29.74,10.0,SW,11.5,-,0.00,,Scattered Clouds,230,2012-11-10 09:53:00
3:53 AM,28.0,21.9,78,29.74,10.0,WSW,12.7,-,0.00,,Clear,250,2012-11-10 10:53:00
4:53 AM,27.0,21.9,81,29.76,10.0,WSW,15.0,-,0.00,,Partly Cloudy,250,2012-11-10 11:53:00
5:53 AM,27.0,21.0,78,29.78,10.0,WSW,13.8,-,0.00,,Scattered Clouds,250,2012-11-10 12:53:00
6:53 AM,27.0,21.0,78,29.79,10.0,WSW,15.0,21.9,0.00,,Clear,250,2012-11-10 13:53:00
7:15 AM,26.6,21.2,80,29.74,10.0,WSW,15.0,24.2,0.00,,Mostly Cloudy,240,2012-11-10 14:15:00
7:53 AM,26.1,21.0,81,29.81,10.0,WSW,12.7,20.7,0.00,,Scattered Clouds,250,2012-11-10 14:53:00
8:53 AM,28.0,21.9,78,29.82,10.0,WSW,18.4,-,0.00,,Clear,250,2012-11-10 15:53:00
9:53 AM,30.0,23.0,75,29.83,10.0,West,12.7,24.2,0.00,,Clear,260,2012-11-10 16:53:00
10:53 AM,33.1,24.1,70,29.84,10.0,West,17.3,25.3,0.00,,Scattered Clouds,270,2012-11-10 17:53:00
11:12 AM,33.8,23.0,65,29.80,10.0,West,19.6,29.9,0.00,Rain,Light Rain,270,2012-11-10 18:12:00
11:43 AM,32.0,21.2,64,29.81,10.0,West,17.3,27.6,0.00,,Scattered Clouds,270,2012-11-10 18:43:00
11:53 AM,33.1,21.9,64,29.86,10.0,West,19.6,27.6,0.00,Rain,Light Rain,260,2012-11-10 18:53:00
12:53 PM,35.1,21.0,57,29.86,10.0,West,18.4,29.9,0.00,Rain,Light Rain,280,2012-11-10 19:53:00
1:53 PM,35.1,19.0,52,29.86,10.0,West,19.6,27.6,0.00,Rain,Light Rain,270,2012-11-10 20:53:00
2:53 PM,35.1,18.0,50,29.88,10.0,West,17.3,25.3,0.00,Rain,Light Rain,270,2012-11-10 21:53:00
3:53 PM,34.0,18.0,52,29.90,10.0,West,17.3,25.3,0.00,Rain,Light Rain,260,2012-11-10 22:53:00
4:53 PM,32.0,18.0,56,29.92,10.0,West,13.8,25.3,0.00,,Clear,270,2012-11-10 23:53:00
5:53 PM,30.0,18.0,61,29.95,10.0,West,15.0,24.2,0.00,,Clear,270,2012-11-11 00:53:00
6:53 PM,28.9,18.0,64,29.99,10.0,West,11.5,24.2,0.00,,Clear,260,2012-11-11 01:53:00
7:53 PM,28.0,18.0,66,30.00,10.0,WSW,12.7,-,0.00,,Partly Cloudy,250,2012-11-11 02:53:00
10:53 PM,25.0,19.0,78,30.04,10.0,WSW,9.2,-,0.00,,Clear,250,2012-11-11 05:53:00
11:53 PM,26.1,18.0,71,30.05,10.0,West,10.4,20.7,0.00,,Clear,270,2012-11-11 06:53:00